Location: Igloolik
(69.3800°N, 81.8000°W)
Time: 22:29:08
(UTC-06:00)

Amateur Radio Satellites - All Passes

Search period start: 22 November 2014 21:59
Search period end: 23 November 2014 21:59
Location: Igloolik, 69.3800°N, 81.8000°W

Satellite Date Start Highest point End Downlink Frequencies (MHz)
Time Altitude Azimuth
CUSAT 1 22 Nov 22:03:45 22:06:56 59° 59° (ENE) 22:11:04 437.405
AIST 2 22 Nov 22:06:49 22:09:52 19° 133° (SE) 22:12:57 435.215
AAUSAT CUBESAT 2 22 Nov 22:07:08 22:07:35 10° 290° (WNW) 22:08:02 437.432
STRAND 1 22 Nov 22:07:10 22:11:36 30° 332° (NNW) 22:16:00 437.568
SWISSCUBE 22 Nov 22:07:46 22:12:29 54° 52° (NE) 22:17:12 437.505
RS-15 22 Nov 22:08:35 22:19:23 67° 199° (SSW) 22:30:32 29.354- 29.394
ZACube-1 22 Nov 22:08:56 22:11:59 19° 276° (W) 22:15:02 437.345
DANDE 22 Nov 22:13:43 22:16:47 60° 60° (ENE) 22:20:44 436.750
TIGRISAT 22 Nov 22:13:53 22:18:02 43° 100° (E) 22:22:14 435.000
POLYITAN 1 22 Nov 22:16:09 22:20:08 37° 97° (E) 22:24:04 437.675
HUMSAT D 22 Nov 22:19:07 22:22:17 21° 274° (W) 22:25:28 437.325/437.525
QB50P2 22 Nov 22:19:40 22:23:41 39° 98° (E) 22:27:41 145.880/145.840
AISAT 22 Nov 22:20:58 22:24:25 21° 275° (W) 22:27:52 437.250
UNISAT 6 22 Nov 22:25:29 22:29:44 50° 103° (ESE) 22:34:02 437.425
PRISM 22 Nov 22:27:28 22:30:20 18° 348° (NNW) 22:33:11 437.425
KKS-1 22 Nov 22:28:03 22:32:04 34° 41° (NE) 22:36:05 437.445
DUCHIFAT 1 22 Nov 22:28:09 22:32:13 42° 100° (E) 22:36:15 145.980
DELFI C3 22 Nov 22:29:40 22:30:49 11° 288° (WNW) 22:31:58 145.870
50 SAT 22 Nov 22:32:23 22:35:18 19° 276° (W) 22:38:13 437.505
BEESAT 22 Nov 22:39:34 22:44:22 71° 58° (ENE) 22:49:11 436.000
FUNcube-1 22 Nov 22:46:48 22:48:41 13° 285° (WNW) 22:50:33 145.935
CUBEBUG 1 22 Nov 22:46:55 22:50:39 25° 271° (W) 22:54:23 437.445
NANOSAT C BR1 22 Nov 22:46:58 22:51:10 54° 104° (ESE) 22:55:19 145.865
Oscar 19 22 Nov 22:47:24 22:48:59 11° 66° (ENE) 22:50:33 437.125/150
SPROUT 22 Nov 22:48:19 22:52:32 49° 258° (WSW) 22:56:46 437.525
TISAT 1 22 Nov 22:49:57 22:54:03 43° 260° (W) 22:58:10 437.305
ANTELSAT 22 Nov 22:53:52 22:58:13 71° 109° (ESE) 23:02:38 437.575/2403.000
YUBILEINY 22 Nov 22:54:57 23:00:01 17° 46° (NE) 23:05:05 435.215
HO-68 22 Nov 22:55:07 22:57:25 12° 304° (NW) 22:59:43 435.675
QB50P1 22 Nov 22:56:23 23:00:37 61° 107° (ESE) 23:04:48 145.935-145.965
CUBESAT XI-V 22 Nov 23:03:42 23:07:05 20° 347° (NNW) 23:10:27 437.345
GONETS M04 22 Nov 23:06:10 23:11:01 16° 317° (NW) 23:15:51
MOZHAYETS 4 22 Nov 23:08:28 23:11:46 20° 14° (NNE) 23:15:05
AUBIESAT-1 22 Nov 23:09:16 23:13:26 45° 250° (WSW) 23:17:57 437.475
M-CUBED/EXP-1 PRIME 22 Nov 23:12:03 23:16:09 42° 252° (WSW) 23:20:37 437.505
BEESAT 3 22 Nov 23:12:41 23:16:32 36° 157° (SSE) 23:20:24 437.485
ESTCUBE 1 22 Nov 23:19:46 23:22:58 18° 279° (W) 23:26:11 437.505/2401.250
POPSAT HIP 1 22 Nov 23:20:45 23:25:02 81° 112° (ESE) 23:29:17 437.405
BEESAT 2 22 Nov 23:25:05 23:28:59 37° 159° (SSE) 23:32:54 435.950
MaSat-1 22 Nov 23:25:37 23:27:13 16° 229° (SW) 23:28:47 437.345
BUGSAT 1 22 Nov 23:26:01 23:30:15 80° 112° (ESE) 23:34:23 437.445
PCSat 22 Nov 23:26:14 23:31:38 66° 166° (SSE) 23:37:03 145.827
STARS 22 Nov 23:30:58 23:35:15 50° 52° (NE) 23:39:32 437.465
ITAMSAT 1 22 Nov 23:32:28 23:34:07 11° 67° (ENE) 23:35:46 435.822/435.867
ITUPSAT 1 22 Nov 23:33:07 23:37:57 69° 251° (WSW) 23:42:49 437.325
AIST 1 22 Nov 23:38:38 23:41:49 19° 338° (NNW) 23:45:01
AIST 2 22 Nov 23:43:42 23:47:40 36° 156° (SSE) 23:51:40 435.215
Gurwin Techsat 1B 22 Nov 23:44:22 23:45:08 10° 63° (ENE) 23:45:53 435.225
SWISSCUBE 22 Nov 23:45:41 23:50:27 58° 255° (WSW) 23:55:15 437.505
STRAND 1 22 Nov 23:45:44 23:49:42 23° 356° (N) 23:53:39 437.568
CUSAT 1 22 Nov 23:46:59 23:50:03 33° 258° (WSW) 23:53:55 437.405
TIGRISAT 22 Nov 23:50:47 23:55:03 62° 302° (WNW) 23:59:23 435.000
POLYITAN 1 22 Nov 23:52:11 23:56:26 70° 300° (WNW) 00:00:39 437.675
QB50P2 22 Nov 23:55:41 23:59:56 67° 300° (WNW) 00:04:09 145.880/145.840
DANDE 22 Nov 23:57:20 00:00:14 31° 259° (WSW) 00:03:51 436.750
PRISM 23 Nov 00:01:53 00:04:44 18° 11° (NNE) 00:07:35 437.425
UNISAT 6 23 Nov 00:02:27 00:06:42 55° 305° (NW) 00:11:00 437.425
KKS-1 23 Nov 00:03:57 00:08:25 84° 63° (ENE) 00:12:55 437.445
DUCHIFAT 1 23 Nov 00:04:08 00:08:21 62° 302° (WNW) 00:12:31 145.980
BEESAT 23 Nov 00:17:59 00:22:34 42° 261° (W) 00:27:10 436.000
RS-15 23 Nov 00:20:16 00:30:25 46° 229° (SW) 00:40:56 29.354- 29.394
NANOSAT C BR1 23 Nov 00:23:01 00:27:08 50° 307° (NW) 00:31:14 145.865
Oscar 19 23 Nov 00:25:29 00:30:04 31° 91° (E) 00:34:38 437.125/150
SPROUT 23 Nov 00:26:56 00:29:40 16° 281° (W) 00:32:24 437.525
TISAT 1 23 Nov 00:28:39 00:31:00 14° 282° (WNW) 00:33:22 437.305
ANTELSAT 23 Nov 00:30:53 00:34:58 41° 312° (NW) 00:39:06 437.575/2403.000
QB50P1 23 Nov 00:32:27 00:36:31 46° 309° (NW) 00:40:34 145.935-145.965
AO-7 23 Nov 00:33:33 00:36:26 12° 52° (NE) 00:39:18 29.400- 29.500
CUBESAT XI-V 23 Nov 00:39:58 00:43:17 19° 10° (N) 00:46:36 437.345
MOZHAYETS 4 23 Nov 00:43:57 00:48:00 31° 38° (NE) 00:52:05
YUBILEINY 23 Nov 00:46:37 00:54:15 35° 74° (ENE) 01:01:52 435.215
AUBIESAT-1 23 Nov 00:46:55 00:49:37 16° 273° (W) 00:52:26 437.475
M-CUBED/EXP-1 PRIME 23 Nov 00:49:59 00:52:28 15° 275° (W) 00:55:03 437.505
BEESAT 3 23 Nov 00:50:16 00:54:18 46° 180° (S) 00:58:21 437.485
POPSAT HIP 1 23 Nov 00:56:51 01:00:46 36° 315° (NW) 01:04:39 437.405
HORYU 2 23 Nov 00:57:08 00:58:56 12° 73° (ENE) 01:00:43 437.375
JAS-2 23 Nov 01:01:14 01:01:52 10° 40° (NE) 01:02:31 435.910
BUGSAT 1 23 Nov 01:01:43 01:05:35 37° 314° (NW) 01:09:23 437.445
BEESAT 2 23 Nov 01:02:47 01:06:50 46° 182° (S) 01:10:54 435.950
STARS 23 Nov 01:07:27 01:11:49 57° 254° (WSW) 01:16:11 437.465
PCSat 23 Nov 01:09:28 01:14:53 68° 190° (S) 01:20:18 145.827
ITAMSAT 1 23 Nov 01:10:44 01:15:23 31° 91° (E) 01:19:59 435.822/435.867
ITUPSAT 1 23 Nov 01:12:46 01:16:42 24° 274° (W) 01:20:39 437.325
AIST 1 23 Nov 01:18:25 01:21:11 16° 4° (N) 01:23:57
AIST 2 23 Nov 01:21:41 01:25:51 47° 179° (S) 01:30:01 435.215
Gurwin Techsat 1B 23 Nov 01:22:27 01:27:02 28° 87° (E) 01:31:35 435.225
STRAND 1 23 Nov 01:23:31 01:27:45 26° 20° (NNE) 01:31:58 437.568
SWISSCUBE 23 Nov 01:25:44 01:29:19 20° 278° (W) 01:32:56 437.505
TIGRISAT 23 Nov 01:27:44 01:31:20 27° 325° (NW) 01:34:59 435.000
POLYITAN 1 23 Nov 01:28:20 01:31:59 28° 322° (NW) 01:35:38 437.675
QB50P2 23 Nov 01:31:48 01:35:26 28° 323° (NW) 01:39:03 145.880/145.840
PRISM 23 Nov 01:35:43 01:39:18 27° 34° (NE) 01:42:54 437.425
UNISAT 6 23 Nov 01:39:25 01:42:57 25° 328° (NNW) 01:46:30 437.425
DUCHIFAT 1 23 Nov 01:40:11 01:43:44 26° 325° (NW) 01:47:16 145.980
KKS-1 23 Nov 01:41:32 01:45:34 32° 266° (W) 01:49:37 437.445
BEESAT 23 Nov 01:58:57 02:01:43 15° 285° (WNW) 02:04:29 436.000
NANOSAT C BR1 23 Nov 01:59:03 02:02:26 23° 329° (NNW) 02:05:47 145.865
Oscar 19 23 Nov 02:04:55 02:10:07 83° 114° (ESE) 02:15:18 437.125/150
ANTELSAT 23 Nov 02:07:47 02:11:03 21° 335° (NNW) 02:14:21 437.575/2403.000
QB50P1 23 Nov 02:08:28 02:11:46 22° 332° (NNW) 02:15:02 145.935-145.965
CUBESAT XI-V 23 Nov 02:15:38 02:19:40 28° 34° (NE) 02:23:41 437.345
MOZHAYETS 4 23 Nov 02:20:11 02:24:48 72° 61° (ENE) 02:29:28
AO-7 23 Nov 02:25:48 02:32:46 28° 81° (E) 02:39:42 29.400- 29.500
BEESAT 3 23 Nov 02:28:12 02:32:05 36° 203° (SSW) 02:35:58 437.485
RS-15 23 Nov 02:32:06 02:39:58 23° 258° (WSW) 02:48:02 29.354- 29.394
HORYU 2 23 Nov 02:32:48 02:36:57 36° 96° (E) 02:41:06 437.375
POPSAT HIP 1 23 Nov 02:32:48 02:35:53 20° 338° (NNW) 02:38:56 437.405
BUGSAT 1 23 Nov 02:37:16 02:40:18 20° 337° (NNW) 02:43:17 437.445
BEESAT 2 23 Nov 02:40:48 02:44:40 35° 205° (SSW) 02:48:32 435.950
YUBILEINY 23 Nov 02:41:15 02:50:01 73° 101° (E) 02:58:45 435.215
JAS-2 23 Nov 02:44:31 02:50:18 22° 68° (ENE) 02:55:44 435.910
STARS 23 Nov 02:46:06 02:49:15 19° 277° (W) 02:52:23 437.465
ITAMSAT 1 23 Nov 02:50:19 02:55:35 83° 114° (ESE) 03:00:48 435.822/435.867
PCSat 23 Nov 02:52:46 02:57:57 46° 215° (SW) 03:03:07 145.827
GONETS M04 23 Nov 02:55:44 02:56:23 10° 18° (NNE) 02:57:02
AIST 1 23 Nov 02:57:01 03:00:29 22° 29° (NNE) 03:03:56
AIST 2 23 Nov 03:00:01 03:04:02 38° 202° (SSW) 03:08:02 435.215
STRAND 1 23 Nov 03:01:15 03:06:08 45° 44° (NE) 03:11:01 437.568
Gurwin Techsat 1B 23 Nov 03:02:29 03:07:51 75° 111° (ESE) 03:13:11 435.225
POLYITAN 1 23 Nov 03:04:10 03:07:00 18° 345° (NNW) 03:09:49 437.675
TIGRISAT 23 Nov 03:04:18 03:07:06 17° 348° (NNW) 03:09:57 435.000
QB50P2 23 Nov 03:07:35 03:10:24 17° 346° (NNW) 03:13:12 145.880/145.840
PRISM 23 Nov 03:10:11 03:14:23 62° 57° (ENE) 03:18:37 437.425
DUCHIFAT 1 23 Nov 03:15:52 03:18:37 17° 348° (NNW) 03:21:21 145.980
UNISAT 6 23 Nov 03:15:56 03:18:42 17° 351° (N) 03:21:30 437.425
KKS-1 23 Nov 03:22:29 03:23:39 11° 289° (WNW) 03:24:49 437.445
Cubesat XI-IV 23 Nov 03:24:39 03:25:47 11° 64° (ENE) 03:26:54 437.490
NANOSAT C BR1 23 Nov 03:34:36 03:37:15 16° 353° (N) 03:39:54 145.865
QB50P1 23 Nov 03:43:56 03:46:34 16° 355° (N) 03:49:12 145.935-145.965
ANTELSAT 23 Nov 03:44:02 03:46:44 17° 358° (N) 03:49:28 437.575/2403.000
Oscar 19 23 Nov 03:44:26 03:49:17 43° 317° (NW) 03:54:08 437.125/150
SO-50 23 Nov 03:48:56 03:49:40 10° 116° (ESE) 03:50:24 436.795
CUBESAT XI-V 23 Nov 03:51:53 03:56:34 61° 57° (ENE) 04:01:15 437.345
MOZHAYETS 4 23 Nov 03:58:03 04:02:24 40° 263° (W) 04:06:49
CUTE-I 23 Nov 04:05:50 04:09:10 16° 74° (ENE) 04:12:28 437.470
BEESAT 3 23 Nov 04:06:30 04:09:31 19° 225° (SW) 04:12:31 437.485
POPSAT HIP 1 23 Nov 04:08:02 04:10:39 16° 1° (N) 04:13:15 437.405
HORYU 2 23 Nov 04:09:33 04:14:03 77° 299° (WNW) 04:18:33 437.375
BUGSAT 1 23 Nov 04:12:08 04:14:40 16° 0° (N) 04:17:11 437.445
AO-7 23 Nov 04:19:08 04:27:25 59° 108° (ESE) 04:35:41 29.400- 29.500
BEESAT 2 23 Nov 04:19:13 04:22:07 18° 227° (SW) 04:25:00 435.950
JAS-2 23 Nov 04:29:50 04:37:19 49° 94° (E) 04:44:09 435.910
ITAMSAT 1 23 Nov 04:29:59 04:34:55 43° 318° (NW) 04:39:48 435.822/435.867
AIST 1 23 Nov 04:34:55 04:39:13 45° 54° (NE) 04:43:28
PCSat 23 Nov 04:36:17 04:40:24 22° 238° (WSW) 04:44:30 145.827
YUBILEINY 23 Nov 04:38:36 04:47:19 61° 309° (NW) 04:56:01 435.215
AIST 2 23 Nov 04:38:41 04:41:52 20° 225° (SW) 04:45:03 435.215
POLYITAN 1 23 Nov 04:39:05 04:41:46 17° 9° (N) 04:44:27 437.675
TIGRISAT 23 Nov 04:39:53 04:42:41 17° 12° (NNE) 04:45:30 435.000
STRAND 1 23 Nov 04:40:00 04:45:11 80° 247° (WSW) 04:50:23 437.568
QB50P2 23 Nov 04:42:25 04:45:08 17° 10° (N) 04:47:50 145.880/145.840
Gurwin Techsat 1B 23 Nov 04:42:38 04:47:44 48° 314° (NW) 04:52:50 435.225
GONETS M04 23 Nov 04:44:05 04:49:26 18° 47° (NE) 04:54:47
PRISM 23 Nov 04:46:08 04:50:11 43° 259° (W) 04:54:17 437.425
DUCHIFAT 1 23 Nov 04:50:35 04:53:19 17° 11° (NNE) 04:56:02 145.980
UNISAT 6 23 Nov 04:51:25 04:54:19 18° 15° (NNE) 04:57:15 437.425
Cubesat XI-IV 23 Nov 05:03:08 05:07:47 29° 89° (E) 05:12:24 437.490
NANOSAT C BR1 23 Nov 05:09:06 05:11:58 18° 16° (NNE) 05:14:49 145.865
O/OREOS (USA 219) 23 Nov 05:13:44 05:15:19 12° 99° (E) 05:16:54 437.305
QB50P1 23 Nov 05:18:22 05:21:18 18° 18° (NNE) 05:24:14 145.935-145.965
ANTELSAT 23 Nov 05:19:16 05:22:24 20° 22° (NNE) 05:25:32 437.575/2403.000
Oscar 19 23 Nov 05:23:37 05:27:47 26° 341° (NNW) 05:31:58 437.125/150
SO-50 23 Nov 05:25:01 05:28:49 25° 139° (SE) 05:32:42 436.795
CUBESAT XI-V 23 Nov 05:29:37 05:34:13 49° 259° (W) 05:38:51 437.345
MOZHAYETS 4 23 Nov 05:38:32 05:40:57 14° 287° (WNW) 05:43:22
POPSAT HIP 1 23 Nov 05:42:17 05:45:25 20° 24° (NNE) 05:48:34 437.405
CUTE-I 23 Nov 05:45:33 05:50:41 43° 98° (E) 05:55:45 437.470
BUGSAT 1 23 Nov 05:45:58 05:49:02 20° 24° (NNE) 05:52:05 437.445
HORYU 2 23 Nov 05:46:24 05:50:23 32° 321° (NW) 05:54:22 437.375
ITAMSAT 1 23 Nov 06:09:17 06:13:34 26° 341° (NNW) 06:17:50 435.822/435.867
AO-7 23 Nov 06:12:21 06:20:42 77° 314° (NW) 06:29:04 29.400- 29.500
AIST 1 23 Nov 06:12:44 06:17:07 60° 257° (WSW) 06:21:28
POLYITAN 1 23 Nov 06:13:15 06:16:41 24° 32° (NNE) 06:20:07 437.675
TIGRISAT 23 Nov 06:14:52 06:18:26 27° 35° (NE) 06:22:03 435.000
JAS-2 23 Nov 06:15:10 06:22:59 83° 300° (WNW) 06:30:07 435.910
QB50P2 23 Nov 06:16:33 06:20:02 25° 33° (NNE) 06:23:30 145.880/145.840
STRAND 1 23 Nov 06:20:37 06:25:08 29° 270° (W) 06:29:38 437.568
HO-68 23 Nov 06:21:52 06:26:34 18° 69° (ENE) 06:31:15 435.675
Gurwin Techsat 1B 23 Nov 06:22:28 06:26:55 28° 338° (NNW) 06:31:22 435.225
PRISM 23 Nov 06:24:35 06:26:52 14° 282° (WNW) 06:29:09 437.425
DUCHIFAT 1 23 Nov 06:24:39 06:28:11 26° 35° (NE) 06:31:43 145.980
UNISAT 6 23 Nov 06:26:28 06:30:11 29° 38° (NE) 06:33:55 437.425
GONETS M04 23 Nov 06:35:58 06:43:45 37° 75° (ENE) 06:51:34
YUBILEINY 23 Nov 06:37:51 06:46:00 39° 339° (NNW) 06:54:07 435.215
NANOSAT C BR1 23 Nov 06:43:14 06:46:56 29° 39° (NE) 06:50:38 145.865
Cubesat XI-IV 23 Nov 06:43:19 06:48:43 76° 112° (ESE) 06:54:04 437.490
GOMX 1 23 Nov 06:49:09 06:50:02 11° 70° (ENE) 06:50:54 467.674
O/OREOS (USA 219) 23 Nov 06:49:33 06:53:34 33° 122° (ESE) 06:57:36 437.305
QB50P1 23 Nov 06:52:32 06:56:19 32° 41° (NE) 07:00:06 145.935-145.965
ANTELSAT 23 Nov 06:54:28 06:58:24 36° 45° (NE) 07:02:22 437.575/2403.000
CUTE 1.7 & AOD 2 23 Nov 06:55:18 06:57:41 14° 77° (ENE) 07:00:04 437.475
BRITE-PL 23 Nov 07:00:26 07:02:51 15° 76° (ENE) 07:05:14 437.365/2234.400
Oscar 19 23 Nov 07:02:02 07:05:58 23° 5° (N) 07:09:54 437.125/150
SO-50 23 Nov 07:04:10 07:08:36 43° 162° (SSE) 07:13:09 436.795
CUBESAT XI-V 23 Nov 07:09:41 07:12:48 17° 283° (WNW) 07:15:56 437.345
POPSAT HIP 1 23 Nov 07:16:36 07:20:35 39° 47° (NE) 07:24:33 437.405
BUGSAT 1 23 Nov 07:19:51 07:23:46 37° 46° (NE) 07:27:40 437.445
CINEMA 3 23 Nov 07:21:43 07:22:36 11° 71° (ENE) 07:23:30 145.822/145.860
Oscar 11 23 Nov 07:21:46 07:23:23 12° 72° (ENE) 07:25:00 145.826/435.025
HORYU 2 23 Nov 07:22:56 07:26:09 20° 345° (NNW) 07:29:23 437.375
CUTE-I 23 Nov 07:25:48 07:31:11 75° 302° (WNW) 07:36:30 437.470
SEEDS 23 Nov 07:32:07 07:35:21 21° 84° (E) 07:38:35 437.485
DX 1 23 Nov 07:40:08 07:42:16 13° 76° (ENE) 07:44:24 434.975-435.025
ITAMSAT 1 23 Nov 07:47:50 07:51:55 24° 5° (N) 07:55:58 435.822/435.867
POLYITAN 1 23 Nov 07:47:55 07:52:04 53° 55° (NE) 07:56:14 437.675
TIGRISAT 23 Nov 07:50:31 07:54:44 63° 58° (ENE) 07:58:59 435.000
AIST 1 23 Nov 07:50:56 07:54:06 20° 281° (W) 07:57:14
QB50P2 23 Nov 07:51:14 07:55:24 55° 55° (NE) 07:59:35 145.880/145.840
AAUSAT CUBESAT 2 23 Nov 07:55:25 07:58:50 23° 87° (E) 08:02:16 437.432
CANX-2 23 Nov 07:55:31 07:59:19 30° 92° (E) 08:03:07 2200.000
DOVE 4 23 Nov 07:58:19 08:01:32 21° 85° (E) 08:04:43 437.250
DUCHIFAT 1 23 Nov 07:59:22 08:03:34 60° 57° (ENE) 08:07:46 145.980
JAS-2 23 Nov 08:00:10 08:07:32 48° 325° (NW) 08:14:24 435.910
Gurwin Techsat 1B 23 Nov 08:01:35 08:05:44 24° 2° (N) 08:09:52 435.225
UNISAT 6 23 Nov 08:02:19 08:06:36 73° 61° (ENE) 08:10:55 437.425
STRAND 1 23 Nov 08:04:58 08:06:06 11° 294° (WNW) 08:07:15 437.568
AO-7 23 Nov 08:05:01 08:12:59 52° 340° (NNW) 08:20:59 29.400- 29.500
ZACube-1 23 Nov 08:05:46 08:07:41 13° 75° (ENE) 08:09:36 437.345
COMPASS 1 23 Nov 08:08:25 08:12:08 29° 92° (E) 08:15:51 437.405
HO-68 23 Nov 08:09:38 08:16:26 42° 95° (E) 08:23:11 435.675
HUMSAT D 23 Nov 08:13:25 08:14:26 11° 72° (ENE) 08:15:27 437.325/437.525
DELFI C3 23 Nov 08:16:42 08:19:47 20° 85° (E) 08:22:52 145.870
NANOSAT C BR1 23 Nov 08:18:11 08:22:27 74° 62° (ENE) 08:26:43 145.865
AISAT 23 Nov 08:20:08 08:22:11 13° 74° (ENE) 08:24:14 437.250
50 SAT 23 Nov 08:23:23 08:24:22 11° 73° (ENE) 08:25:21 437.505
Cubesat XI-IV 23 Nov 08:23:35 08:28:43 47° 315° (NW) 08:33:49 437.490
GOMX 1 23 Nov 08:25:43 08:29:36 33° 94° (E) 08:33:23 467.674
QB50P1 23 Nov 08:27:38 08:31:55 82° 64° (ENE) 08:36:12 145.935-145.965
O/OREOS (USA 219) 23 Nov 08:28:07 08:32:37 79° 145° (SE) 08:37:07 437.305
CUTE 1.7 & AOD 2 23 Nov 08:30:37 08:34:44 44° 100° (E) 08:38:51 437.475
ANTELSAT 23 Nov 08:30:44 08:35:02 82° 248° (WSW) 08:39:23 437.575/2403.000
GONETS M04 23 Nov 08:30:47 08:39:36 76° 103° (ESE) 08:48:28
YUBILEINY 23 Nov 08:37:24 08:45:24 37° 10° (N) 08:53:21 435.215
BRITE-PL 23 Nov 08:38:23 08:42:35 46° 100° (E) 08:46:36 437.365/2234.400
Oscar 19 23 Nov 08:39:48 08:44:13 30° 29° (NNE) 08:48:40 437.125/150
FUNcube-1 23 Nov 08:41:10 08:44:14 19° 84° (E) 08:47:18 145.935
UKube-1 23 Nov 08:43:13 08:46:58 27° 91° (E) 08:50:41 .
SO-50 23 Nov 08:44:08 08:48:41 48° 186° (S) 08:53:21 436.795
CUBEBUG 1 23 Nov 08:45:37 08:46:31 11° 70° (ENE) 08:47:26 437.445
POPSAT HIP 1 23 Nov 08:52:05 08:56:22 75° 250° (WSW) 09:00:39 437.405
CUBEBUG 2 23 Nov 08:52:26 08:55:57 25° 90° (E) 08:59:29 437.445
BUGSAT 1 23 Nov 08:54:51 08:59:08 79° 249° (WSW) 09:03:22 437.445
Oscar 11 23 Nov 08:56:51 09:00:52 35° 95° (E) 09:04:53 145.826/435.025
CINEMA 3 23 Nov 08:57:22 09:01:11 33° 95° (E) 09:05:00 145.822/145.860
HORYU 2 23 Nov 08:58:36 09:01:40 19° 8° (N) 09:04:45 437.375
UWE-3 23 Nov 08:59:14 09:02:46 26° 90° (E) 09:06:19 435.000/436.395/437.385
CUTE-I 23 Nov 09:05:58 09:10:50 36° 325° (NW) 09:15:40 437.470
SEEDS 23 Nov 09:07:45 09:12:00 65° 107° (ESE) 09:16:15 437.485
DX 1 23 Nov 09:15:35 09:19:45 39° 99° (E) 09:23:52 434.975-435.025
ESTCUBE 1 23 Nov 09:19:13 09:22:13 17° 79° (E) 09:25:12 437.505/2401.250
POLYITAN 1 23 Nov 09:24:00 09:28:10 50° 257° (WSW) 09:32:20 437.675
ITAMSAT 1 23 Nov 09:25:47 09:30:21 32° 29° (NNE) 09:34:54 435.822/435.867
QB50P2 23 Nov 09:27:20 09:31:30 49° 258° (WSW) 09:35:39 145.880/145.840
TIGRISAT 23 Nov 09:27:43 09:31:46 41° 261° (W) 09:35:52 435.000
AAUSAT CUBESAT 2 23 Nov 09:30:58 09:35:13 75° 110° (ESE) 09:39:27 437.432
CANX-2 23 Nov 09:31:28 09:35:47 86° 295° (WNW) 09:40:05 2200.000
VELOX 1 23 Nov 09:31:37 09:35:32 28° 92° (E) 09:39:23 145.980
DUCHIFAT 1 23 Nov 09:35:34 09:39:40 44° 259° (W) 09:43:46 145.980
DOVE 4 23 Nov 09:35:55 09:40:08 69° 108° (ESE) 09:44:17 437.250
UNISAT 6 23 Nov 09:39:50 09:43:47 36° 264° (W) 09:47:48 437.425
Gurwin Techsat 1B 23 Nov 09:40:00 09:44:34 30° 26° (NNE) 09:49:08 435.225
ZACube-1 23 Nov 09:41:17 09:45:15 39° 98° (E) 09:49:14 437.345
COMPASS 1 23 Nov 09:44:08 09:48:24 88° 296° (WNW) 09:52:40 437.405
JAS-2 23 Nov 09:44:29 09:51:23 36° 350° (N) 09:57:57 435.910
HUMSAT D 23 Nov 09:47:45 09:51:33 33° 95° (E) 09:55:21 437.325/437.525
DELFI C3 23 Nov 09:51:45 09:55:53 64° 107° (ESE) 10:00:01 145.870
NANOSAT C BR1 23 Nov 09:54:47 09:58:43 35° 264° (W) 10:02:40 145.865
AISAT 23 Nov 09:55:56 10:00:07 38° 98° (E) 10:04:17 437.250
AO-7 23 Nov 09:56:57 10:04:48 48° 7° (N) 10:12:40 29.400- 29.500
50 SAT 23 Nov 09:57:14 10:00:57 34° 96° (E) 10:04:40 437.505
HO-68 23 Nov 09:57:43 10:04:59 88° 120° (ESE) 10:12:13 435.675
Cubesat XI-IV 23 Nov 10:03:31 10:08:01 28° 339° (NNW) 10:12:30 437.490
GOMX 1 23 Nov 10:03:55 10:08:12 75° 298° (WNW) 10:12:21 467.674
QB50P1 23 Nov 10:04:27 10:08:17 31° 266° (W) 10:12:07 145.935-145.965
CUTE 1.7 & AOD 2 23 Nov 10:06:40 10:10:54 60° 302° (WNW) 10:15:08 437.475
O/OREOS (USA 219) 23 Nov 10:07:46 10:12:14 65° 349° (N) 10:16:43 437.305
ANTELSAT 23 Nov 10:08:54 10:12:30 26° 271° (W) 10:16:08 437.575/2403.000
BRITE-PL 23 Nov 10:17:04 10:21:20 56° 304° (NW) 10:25:26 437.365/2234.400
FUNcube-1 23 Nov 10:17:17 10:21:26 62° 106° (ESE) 10:25:37 145.935
Oscar 19 23 Nov 10:17:56 10:22:57 58° 52° (NE) 10:28:01 437.125/150
UKube-1 23 Nov 10:19:21 10:23:45 83° 114° (ESE) 10:28:08 .
CUBEBUG 1 23 Nov 10:20:22 10:24:21 31° 93° (E) 10:28:17 437.445
TISAT 1 23 Nov 10:20:54 10:23:38 16° 81° (E) 10:26:21 437.305
SPROUT 23 Nov 10:21:03 10:23:45 16° 79° (E) 10:26:27 437.525
SO-50 23 Nov 10:24:23 10:28:41 34° 209° (SSW) 10:33:04 436.795
GONETS M04 23 Nov 10:28:17 10:37:02 59° 311° (NW) 10:45:49
CUBEBUG 2 23 Nov 10:29:05 10:33:18 83° 112° (ESE) 10:37:31 437.445
POPSAT HIP 1 23 Nov 10:29:30 10:32:58 24° 272° (W) 10:36:27 437.405
BUGSAT 1 23 Nov 10:31:44 10:35:16 25° 271° (W) 10:38:47 437.445
Oscar 11 23 Nov 10:33:05 10:37:26 75° 298° (WNW) 10:41:48 145.826/435.025
HORYU 2 23 Nov 10:33:36 10:37:19 27° 32° (NNE) 10:41:03 437.375
CINEMA 3 23 Nov 10:34:39 10:38:50 75° 297° (WNW) 10:43:01 145.822/145.860
UWE-3 23 Nov 10:35:44 10:39:57 84° 112° (ESE) 10:44:10 435.000/436.395/437.385
YUBILEINY 23 Nov 10:35:54 10:44:26 51° 41° (NE) 10:52:53 435.215
SEEDS 23 Nov 10:43:46 10:47:49 43° 309° (NW) 10:51:52 437.485
CUTE-I 23 Nov 10:45:38 10:49:55 25° 349° (N) 10:54:12 437.470
DX 1 23 Nov 10:51:56 10:56:19 69° 302° (WNW) 11:00:39 434.975-435.025
ESTCUBE 1 23 Nov 10:55:43 11:00:11 49° 102° (ESE) 11:04:37 437.505/2401.250
POLYITAN 1 23 Nov 11:02:23 11:05:07 16° 280° (W) 11:07:52 437.675
ITAMSAT 1 23 Nov 11:04:07 11:09:16 61° 53° (NE) 11:14:26 435.822/435.867
QB50P2 23 Nov 11:05:48 11:08:27 16° 280° (W) 11:11:06 145.880/145.840
AAUSAT CUBESAT 2 23 Nov 11:06:51 11:10:47 38° 312° (NW) 11:14:43 437.432
TIGRISAT 23 Nov 11:07:33 11:09:43 14° 284° (WNW) 11:11:54 435.000
CANX-2 23 Nov 11:07:37 11:11:27 33° 317° (NW) 11:15:16 2200.000
VELOX 1 23 Nov 11:08:13 11:12:43 87° 114° (ESE) 11:17:11 145.980
DOVE 4 23 Nov 11:13:55 11:17:52 40° 311° (NW) 11:21:45 437.250
DUCHIFAT 1 23 Nov 11:14:15 11:16:38 15° 282° (WNW) 11:19:02 145.980
ZACube-1 23 Nov 11:17:47 11:21:56 64° 301° (WNW) 11:26:06 437.345
Gurwin Techsat 1B 23 Nov 11:18:41 11:23:52 55° 50° (NE) 11:29:05 435.225
ITUPSAT 1 23 Nov 11:19:46 11:22:34 15° 75° (ENE) 11:25:20 437.325
COMPASS 1 23 Nov 11:20:05 11:23:53 33° 316° (NW) 11:27:41 437.405
UNISAT 6 23 Nov 11:20:20 11:21:55 12° 287° (WNW) 11:23:30 437.425
HUMSAT D 23 Nov 11:23:37 11:27:46 75° 297° (WNW) 11:31:56 437.325/437.525
DELFI C3 23 Nov 11:27:15 11:31:10 43° 309° (NW) 11:35:06 145.870
JAS-2 23 Nov 11:28:01 11:35:01 37° 15° (NNE) 11:41:46 435.910
SWISSCUBE 23 Nov 11:31:45 11:35:02 18° 79° (E) 11:38:19 437.505
50 SAT 23 Nov 11:32:36 11:36:39 73° 298° (WNW) 11:40:42 437.505
AISAT 23 Nov 11:32:40 11:37:08 72° 300° (WNW) 11:41:34 437.250
NANOSAT C BR1 23 Nov 11:34:25 11:35:54 12° 287° (WNW) 11:37:23 145.865
GOMX 1 23 Nov 11:42:16 11:45:58 29° 321° (NW) 11:49:34 467.674
Cubesat XI-IV 23 Nov 11:42:44 11:46:58 24° 4° (N) 11:51:12 437.490
CUTE 1.7 & AOD 2 23 Nov 11:42:47 11:46:20 26° 324° (NW) 11:49:53 437.475
QB50P1 23 Nov 11:44:58 11:45:34 10° 289° (WNW) 11:46:10 145.935-145.965
HO-68 23 Nov 11:45:33 11:52:29 53° 326° (NW) 11:59:24 435.675
O/OREOS (USA 219) 23 Nov 11:47:34 11:52:03 68° 14° (NNE) 11:56:32 437.305
AO-7 23 Nov 11:48:38 11:56:48 62° 34° (NE) 12:05:00 29.400- 29.500
FUNcube-1 23 Nov 11:53:50 11:57:48 44° 309° (NW) 12:01:48 145.935
UKube-1 23 Nov 11:55:42 11:59:44 37° 316° (NW) 12:03:45 .
BRITE-PL 23 Nov 11:55:45 11:59:18 25° 328° (NNW) 12:02:43 437.365/2234.400
TISAT 1 23 Nov 11:56:18 12:00:28 51° 103° (ESE) 12:04:36 437.305
SPROUT 23 Nov 11:56:41 12:00:54 49° 102° (ESE) 12:05:04 437.525
CUBEBUG 1 23 Nov 11:56:47 12:01:14 85° 296° (WNW) 12:05:39 437.445
Oscar 19 23 Nov 11:57:25 12:02:28 56° 256° (WSW) 12:07:33 437.125/150
BEESAT 23 Nov 12:03:21 12:07:16 24° 86° (E) 12:11:10 436.000
SO-50 23 Nov 12:05:06 12:08:14 17° 232° (SW) 12:11:23 436.795
CUBEBUG 2 23 Nov 12:06:01 12:09:50 35° 315° (NW) 12:13:39 437.445
HORYU 2 23 Nov 12:09:05 12:13:27 57° 54° (NE) 12:17:51 437.375
Oscar 11 23 Nov 12:09:26 12:13:14 30° 320° (NW) 12:17:03 145.826/435.025
CINEMA 3 23 Nov 12:12:06 12:15:42 29° 320° (NW) 12:19:18 145.822/145.860
UWE-3 23 Nov 12:12:31 12:16:19 35° 315° (NW) 12:20:08 435.000/436.395/437.385
AUBIESAT-1 23 Nov 12:12:50 12:16:41 23° 95° (E) 12:20:35 437.475
M-CUBED/EXP-1 PRIME 23 Nov 12:15:54 12:19:53 25° 97° (E) 12:23:56 437.505
SEEDS 23 Nov 12:19:44 12:22:57 21° 332° (NNW) 12:26:10 437.485
CUTE-I 23 Nov 12:24:28 12:28:49 26° 14° (NNE) 12:33:09 437.470
GONETS M04 23 Nov 12:27:37 12:35:49 39° 341° (NNW) 12:44:01
DX 1 23 Nov 12:28:20 12:32:08 29° 324° (NW) 12:35:55 434.975-435.025
ESTCUBE 1 23 Nov 12:32:44 12:37:15 59° 305° (NW) 12:41:44 437.505/2401.250
YUBILEINY 23 Nov 12:33:24 12:42:14 90° 70° (ENE) 12:50:59 435.215
AAUSAT CUBESAT 2 23 Nov 12:42:38 12:45:42 20° 335° (NNW) 12:48:46 437.432
CANX-2 23 Nov 12:43:34 12:46:30 18° 340° (NNW) 12:49:27 2200.000
STARS 23 Nov 12:43:43 12:46:03 14° 77° (ENE) 12:48:23 437.465
ITAMSAT 1 23 Nov 12:43:50 12:48:58 54° 256° (WSW) 12:54:07 435.822/435.867
VELOX 1 23 Nov 12:44:59 12:49:06 37° 317° (NW) 12:53:10 145.980
DOVE 4 23 Nov 12:51:49 12:54:54 20° 335° (NNW) 12:57:57 437.250
ZACube-1 23 Nov 12:54:23 12:57:52 26° 323° (NW) 13:01:23 437.345
COMPASS 1 23 Nov 12:55:51 12:58:45 18° 339° (NNW) 13:01:40 437.405
ITUPSAT 1 23 Nov 12:57:09 13:01:46 42° 99° (E) 13:06:21 437.325
Gurwin Techsat 1B 23 Nov 12:58:38 13:03:55 63° 253° (WSW) 13:09:14 435.225
HUMSAT D 23 Nov 12:59:39 13:03:14 29° 320° (NW) 13:06:49 437.325/437.525
DELFI C3 23 Nov 13:02:42 13:05:47 21° 332° (NNW) 13:08:53 145.870
50 SAT 23 Nov 13:08:09 13:11:36 28° 320° (NW) 13:15:04 437.505
SWISSCUBE 23 Nov 13:09:19 13:14:03 50° 103° (ESE) 13:18:44 437.505
AISAT 23 Nov 13:09:28 13:13:23 30° 323° (NW) 13:17:16 437.250
JAS-2 23 Nov 13:11:25 13:18:58 53° 40° (NE) 13:26:21 435.910
CUSAT 1 23 Nov 13:15:02 13:17:34 46° 106° (ESE) 13:20:21 437.405
KKS-1 23 Nov 13:17:39 13:21:20 25° 89° (E) 13:25:01 437.445
CUTE 1.7 & AOD 2 23 Nov 13:18:33 13:21:15 17° 347° (NNW) 13:23:57 437.475
GOMX 1 23 Nov 13:20:18 13:23:08 17° 345° (NNW) 13:25:55 467.674
Cubesat XI-IV 23 Nov 13:21:18 13:25:59 32° 28° (NNE) 13:30:39 437.490
O/OREOS (USA 219) 23 Nov 13:27:08 13:31:37 72° 218° (SW) 13:36:05 437.305
DANDE 23 Nov 13:28:04 13:30:37 51° 108° (ESE) 13:33:21 436.750
FUNcube-1 23 Nov 13:30:21 13:33:30 21° 332° (NNW) 13:36:39 145.935
UKube-1 23 Nov 13:31:50 13:35:07 21° 339° (NNW) 13:38:22 .
TISAT 1 23 Nov 13:32:17 13:36:27 53° 306° (NW) 13:40:34 437.305
HO-68 23 Nov 13:32:45 13:39:17 39° 351° (N) 13:45:48 435.675
SPROUT 23 Nov 13:32:55 13:37:09 55° 305° (NW) 13:41:21 437.525
CUBEBUG 1 23 Nov 13:33:20 13:37:19 33° 319° (NW) 13:41:17 437.445
BRITE-PL 23 Nov 13:33:55 13:36:45 17° 352° (N) 13:39:29 437.365/2234.400
Oscar 19 23 Nov 13:39:06 13:42:55 21° 279° (W) 13:46:46 437.125/150
BEESAT 23 Nov 13:41:08 13:45:58 69° 109° (ESE) 13:50:47 436.000
AO-7 23 Nov 13:41:13 13:49:34 80° 240° (WSW) 13:58:00 29.400- 29.500
CUBEBUG 2 23 Nov 13:42:49 13:45:44 19° 338° (NNW) 13:48:39 437.445
Oscar 11 23 Nov 13:45:31 13:48:28 18° 343° (NNW) 13:51:26 145.826/435.025
HORYU 2 23 Nov 13:45:58 13:50:18 50° 257° (WSW) 13:54:40 437.375
AUBIESAT-1 23 Nov 13:47:44 13:52:30 61° 117° (ESE) 13:57:23 437.475
UWE-3 23 Nov 13:49:09 13:52:03 19° 338° (NNW) 13:54:58 435.000/436.395/437.385
CINEMA 3 23 Nov 13:49:17 13:51:59 17° 344° (NNW) 13:54:42 145.822/145.860
M-CUBED/EXP-1 PRIME 23 Nov 13:50:54 13:55:42 66° 118° (ESE) 14:00:38 437.505
SEEDS 23 Nov 13:55:09 13:57:40 16° 355° (N) 14:00:11 437.485
CUTE-I 23 Nov 14:03:00 14:07:57 39° 38° (NE) 14:12:54 437.470
DX 1 23 Nov 14:04:21 14:07:26 19° 347° (NNW) 14:10:29 434.975-435.025
ESTCUBE 1 23 Nov 14:09:44 14:13:35 27° 328° (NNW) 14:17:25 437.505/2401.250
AAUSAT CUBESAT 2 23 Nov 14:17:47 14:20:14 15° 358° (N) 14:22:41 437.432
CANX-2 23 Nov 14:18:44 14:21:15 16° 3° (N) 14:23:48 2200.000
STARS 23 Nov 14:19:32 14:23:44 41° 100° (E) 14:27:55 437.465
VELOX 1 23 Nov 14:21:31 14:24:51 21° 340° (NNW) 14:28:11 145.980
ITAMSAT 1 23 Nov 14:25:47 14:29:37 20° 280° (W) 14:33:28 435.822/435.867
GONETS M04 23 Nov 14:27:08 14:35:15 37° 12° (NNE) 14:43:21
DOVE 4 23 Nov 14:29:01 14:31:32 16° 359° (N) 14:34:01 437.250
YUBILEINY 23 Nov 14:30:23 14:38:31 45° 277° (W) 14:46:34 435.215
ZACube-1 23 Nov 14:30:39 14:33:16 16° 346° (NNW) 14:35:54 437.345
COMPASS 1 23 Nov 14:30:51 14:33:18 15° 2° (N) 14:35:47 437.405
ITUPSAT 1 23 Nov 14:35:10 14:40:01 71° 302° (WNW) 14:44:50 437.325
HUMSAT D 23 Nov 14:35:28 14:38:08 17° 343° (NNW) 14:40:49 437.325/437.525
DELFI C3 23 Nov 14:37:38 14:39:59 15° 355° (N) 14:42:21 145.870
Gurwin Techsat 1B 23 Nov 14:40:41 14:44:56 24° 277° (W) 14:49:11 435.225
50 SAT 23 Nov 14:43:28 14:46:00 16° 343° (NNW) 14:48:32 437.505
AISAT 23 Nov 14:45:54 14:49:04 19° 346° (NNW) 14:52:14 437.250
SWISSCUBE 23 Nov 14:47:21 14:52:07 61° 305° (NW) 14:56:52 437.505
CUTE 1.7 & AOD 2 23 Nov 14:53:18 14:55:57 16° 11° (N) 14:58:37 437.475
KKS-1 23 Nov 14:54:13 14:58:42 76° 111° (ESE) 15:03:10 437.445
JAS-2 23 Nov 14:55:47 15:03:41 89° 244° (WSW) 15:11:29 435.910
GOMX 1 23 Nov 14:57:20 15:00:04 17° 9° (N) 15:02:43 467.674
CUSAT 1 23 Nov 14:58:31 15:00:54 29° 314° (NW) 15:03:35 437.405
Cubesat XI-IV 23 Nov 15:00:10 15:05:27 59° 51° (NE) 15:10:44 437.490
RS-15 23 Nov 15:03:26 15:11:14 24° 102° (ESE) 15:19:05 29.354- 29.394
FUNcube-1 23 Nov 15:06:19 15:08:45 15° 355° (N) 15:11:12 145.935
O/OREOS (USA 219) 23 Nov 15:06:42 15:10:34 29° 241° (WSW) 15:14:25 437.305
UKube-1 23 Nov 15:07:15 15:10:10 18° 3° (N) 15:13:04 .
TISAT 1 23 Nov 15:08:17 15:11:43 24° 328° (NNW) 15:15:08 437.305
SPROUT 23 Nov 15:09:10 15:12:41 25° 327° (NNW) 15:16:11 437.525
CUBEBUG 1 23 Nov 15:09:38 15:12:49 20° 342° (NNW) 15:15:59 437.445
BRITE-PL 23 Nov 15:10:59 15:14:03 18° 16° (NNE) 15:17:01 437.365/2234.400
DANDE 23 Nov 15:12:03 15:14:22 26° 315° (NW) 15:16:53 436.750
CUBEBUG 2 23 Nov 15:18:52 15:21:17 15° 1° (N) 15:23:42 437.445
BEESAT 23 Nov 15:19:10 15:23:47 47° 312° (NW) 15:28:24 436.000
HO-68 23 Nov 15:19:16 15:25:54 42° 17° (NNE) 15:32:31 435.675
Oscar 11 23 Nov 15:20:43 15:23:27 17° 7° (N) 15:26:11 145.826/435.025
AUBIESAT-1 23 Nov 15:22:53 15:27:34 59° 318° (NW) 15:32:24 437.475
UWE-3 23 Nov 15:25:01 15:27:26 15° 1° (N) 15:29:52 435.000/436.395/437.385
HORYU 2 23 Nov 15:25:10 15:28:03 17° 280° (W) 15:30:57 437.375
CINEMA 3 23 Nov 15:25:30 15:28:01 16° 8° (N) 15:30:30 145.822/145.860
M-CUBED/EXP-1 PRIME 23 Nov 15:26:07 15:30:46 56° 320° (NW) 15:35:36 437.505
SEEDS 23 Nov 15:29:28 15:32:18 18° 19° (NNE) 15:35:09 437.485
AO-7 23 Nov 15:35:52 15:43:34 40° 266° (W) 15:51:20 29.400- 29.500
MOZHAYETS 4 23 Nov 15:38:12 15:42:07 25° 87° (E) 15:46:00
DX 1 23 Nov 15:39:29 15:42:31 19° 11° (N) 15:45:33 434.975-435.025
CUTE-I 23 Nov 15:42:19 15:47:42 83° 61° (ENE) 15:53:06 437.470
ESTCUBE 1 23 Nov 15:46:15 15:49:25 19° 351° (N) 15:52:35 437.505/2401.250
AAUSAT CUBESAT 2 23 Nov 15:51:50 15:54:44 18° 21° (NNE) 15:57:38 437.432
CANX-2 23 Nov 15:52:54 15:56:03 21° 27° (NNE) 15:59:14 2200.000
STARS 23 Nov 15:56:08 16:00:31 66° 302° (WNW) 16:04:53 437.465
VELOX 1 23 Nov 15:57:17 16:00:18 18° 4° (N) 16:03:18 145.980
COMPASS 1 23 Nov 16:04:49 16:07:54 20° 26° (NNE) 16:10:59 437.405
DOVE 4 23 Nov 16:05:06 16:08:10 19° 23° (NNE) 16:11:09 437.250
ZACube-1 23 Nov 16:05:55 16:08:27 16° 10° (N) 16:10:59 437.345
HUMSAT D 23 Nov 16:10:22 16:12:46 15° 6° (N) 16:15:10 437.325/437.525
DELFI C3 23 Nov 16:11:26 16:14:06 17° 18° (NNE) 16:16:47 145.870
ITUPSAT 1 23 Nov 16:13:11 16:17:29 32° 325° (NW) 16:21:45 437.325
PRISM 23 Nov 16:15:17 16:17:52 16° 80° (E) 16:20:27 437.425
MaSat-1 23 Nov 16:15:38 16:17:24 16° 131° (SE) 16:19:05 437.345
50 SAT 23 Nov 16:17:53 16:20:09 15° 7° (N) 16:22:25 437.505
AISAT 23 Nov 16:21:27 16:24:33 19° 10° (N) 16:27:37 437.250
SWISSCUBE 23 Nov 16:25:17 16:29:27 29° 328° (NNW) 16:33:35 437.505
GONETS M04 23 Nov 16:25:35 16:34:16 53° 43° (NE) 16:42:53
YUBILEINY 23 Nov 16:27:10 16:33:13 22° 305° (NW) 16:39:16 435.215
CUTE 1.7 & AOD 2 23 Nov 16:27:23 16:30:51 25° 34° (NE) 16:34:20 437.475
KKS-1 23 Nov 16:31:03 16:35:14 40° 314° (NW) 16:39:24 437.445
GOMX 1 23 Nov 16:33:33 16:37:09 24° 33° (NNE) 16:40:37 467.674
STRAND 1 23 Nov 16:36:18 16:39:16 15° 74° (ENE) 16:42:14 437.568
Cubesat XI-IV 23 Nov 16:40:23 16:45:42 58° 255° (WSW) 16:51:02 437.490
FUNcube-1 23 Nov 16:41:09 16:43:56 18° 19° (NNE) 16:46:42 145.935
UKube-1 23 Nov 16:41:49 16:45:15 23° 26° (NNE) 16:48:41 .
JAS-2 23 Nov 16:42:01 16:49:29 45° 269° (W) 16:56:54 435.910
CUSAT 1 23 Nov 16:43:44 16:45:09 13° 342° (NNW) 16:46:40 437.405
TISAT 1 23 Nov 16:43:48 16:46:31 17° 352° (N) 16:49:12 437.305
SPROUT 23 Nov 16:44:58 16:47:44 17° 350° (N) 16:50:29 437.525
CUBEBUG 1 23 Nov 16:45:06 16:48:01 18° 5° (N) 16:50:55 437.445
BRITE-PL 23 Nov 16:47:36 16:51:39 30° 40° (NE) 16:55:29 437.365/2234.400
CUBEBUG 2 23 Nov 16:53:50 16:56:51 20° 25° (NNE) 16:59:52 437.445
Oscar 11 23 Nov 16:55:06 16:58:32 23° 30° (NNE) 17:01:59 145.826/435.025
BEESAT 23 Nov 16:56:59 17:00:55 26° 335° (NNW) 17:04:51 436.000
DANDE 23 Nov 16:57:49 16:58:59 12° 343° (NNW) 17:00:12 436.750
AUBIESAT-1 23 Nov 16:57:51 17:02:05 34° 340° (NNW) 17:06:28 437.475
UWE-3 23 Nov 16:59:50 17:02:51 20° 25° (NNE) 17:05:52 435.000/436.395/437.385
CINEMA 3 23 Nov 17:00:50 17:04:10 23° 31° (NNE) 17:07:27 145.822/145.860
M-CUBED/EXP-1 PRIME 23 Nov 17:01:07 17:05:19 33° 342° (NNW) 17:09:41 437.505
SEEDS 23 Nov 17:03:31 17:07:13 31° 42° (NE) 17:10:58 437.485
HO-68 23 Nov 17:05:48 17:12:53 62° 43° (NE) 17:19:58 435.675
RS-15 23 Nov 17:10:40 17:20:44 46° 132° (SE) 17:31:00 29.354- 29.394
CUBESAT XI-V 23 Nov 17:11:44 17:15:25 22° 83° (E) 17:19:04 437.345
DX 1 23 Nov 17:14:03 17:17:48 28° 34° (NE) 17:21:32 434.975-435.025
MOZHAYETS 4 23 Nov 17:15:23 17:20:05 75° 110° (ESE) 17:24:46
ESTCUBE 1 23 Nov 17:21:49 17:25:06 20° 14° (NNE) 17:28:23 437.505/2401.250
CUTE-I 23 Nov 17:23:17 17:28:18 39° 264° (W) 17:33:20 437.470
AIST 1 23 Nov 17:23:36 17:25:05 12° 68° (ENE) 17:26:35
AAUSAT CUBESAT 2 23 Nov 17:25:47 17:29:34 33° 44° (NE) 17:33:22 437.432
CANX-2 23 Nov 17:27:16 17:31:16 41° 49° (NE) 17:35:17 2200.000
VELOX 1 23 Nov 17:32:14 17:35:48 24° 27° (NNE) 17:39:22 145.980
STARS 23 Nov 17:32:47 17:36:34 28° 325° (NW) 17:40:19 437.465
AO-7 23 Nov 17:33:50 17:39:07 18° 294° (WNW) 17:44:25 29.400- 29.500
COMPASS 1 23 Nov 17:38:58 17:42:53 39° 48° (NE) 17:46:50 437.405
ZACube-1 23 Nov 17:40:27 17:43:48 24° 33° (NNE) 17:47:09 437.345
DOVE 4 23 Nov 17:41:08 17:45:09 36° 46° (NE) 17:49:02 437.250
HUMSAT D 23 Nov 17:44:21 17:47:30 22° 30° (NNE) 17:50:39 437.325/437.525
DELFI C3 23 Nov 17:44:56 17:48:30 29° 41° (NE) 17:52:05 145.870
MaSat-1 23 Nov 17:49:04 17:51:37 47° 152° (SSE) 17:54:00 437.345
PRISM 23 Nov 17:50:19 17:54:28 47° 103° (ESE) 17:58:36 437.425
ITUPSAT 1 23 Nov 17:50:46 17:54:24 22° 348° (NNW) 17:58:02 437.325
50 SAT 23 Nov 17:51:20 17:54:23 21° 30° (NNE) 17:57:26 437.505
AISAT 23 Nov 17:56:24 18:00:10 27° 33° (NNE) 18:03:57 437.250
CUTE 1.7 & AOD 2 23 Nov 18:02:05 18:06:14 57° 57° (ENE) 18:10:26 437.475
SWISSCUBE 23 Nov 18:02:43 18:06:16 21° 352° (N) 18:09:50 437.505
KKS-1 23 Nov 18:07:42 18:11:07 22° 337° (NNW) 18:14:31 437.445
GOMX 1 23 Nov 18:10:18 18:14:45 54° 56° (NE) 18:18:57 467.674
STRAND 1 23 Nov 18:15:00 18:19:54 41° 98° (E) 18:24:44 437.568
FUNcube-1 23 Nov 18:15:44 18:19:24 31° 42° (NE) 18:23:05 145.935
UKube-1 23 Nov 18:16:34 18:20:44 45° 49° (NE) 18:24:55 .
TISAT 1 23 Nov 18:18:19 18:21:11 18° 15° (NNE) 18:24:02 437.305
SPROUT 23 Nov 18:19:45 18:22:37 18° 14° (NNE) 18:25:29 437.525
CUBEBUG 1 23 Nov 18:19:46 18:23:18 24° 29° (NNE) 18:26:50 437.445
Cubesat XI-IV 23 Nov 18:22:47 18:26:55 22° 278° (W) 18:31:04 437.490
GONETS M04 23 Nov 18:23:04 18:32:00 87° 251° (WSW) 18:40:52
YUBILEINY 23 Nov 18:24:17 18:26:34 11° 334° (NNW) 18:28:51 435.215
BRITE-PL 23 Nov 18:25:05 18:29:50 74° 62° (ENE) 18:34:15 437.365/2234.400
CUSAT 1 23 Nov 18:28:34 18:29:48 12° 11° (N) 18:31:07 437.405
CUBEBUG 2 23 Nov 18:28:55 18:32:49 38° 48° (NE) 18:36:42 437.445
Oscar 11 23 Nov 18:29:53 18:34:04 49° 53° (NE) 18:38:16 145.826/435.025
JAS-2 23 Nov 18:30:54 18:36:34 21° 294° (WNW) 18:42:13 435.910
AUBIESAT-1 23 Nov 18:32:20 18:36:18 29° 3° (N) 18:40:28 437.475
BEESAT 23 Nov 18:34:09 18:37:39 20° 359° (N) 18:41:09 436.000
UWE-3 23 Nov 18:34:46 18:38:39 38° 48° (NE) 18:42:32 435.000/436.395/437.385
M-CUBED/EXP-1 PRIME 23 Nov 18:35:36 18:39:35 30° 4° (N) 18:43:45 437.505
CINEMA 3 23 Nov 18:36:39 18:40:48 50° 54° (NE) 18:44:51 145.822/145.860
SEEDS 23 Nov 18:38:30 18:42:44 80° 64° (ENE) 18:47:00 437.485
DANDE 23 Nov 18:42:58 18:43:59 11° 12° (NNE) 18:45:03 436.750
CUBESAT XI-V 23 Nov 18:49:03 18:53:46 64° 106° (ESE) 18:58:26 437.345
DX 1 23 Nov 18:49:13 18:53:34 63° 57° (ENE) 18:57:56 434.975-435.025
MOZHAYETS 4 23 Nov 18:52:48 18:57:12 42° 312° (NW) 19:01:36
HO-68 23 Nov 18:53:29 19:00:41 71° 248° (WSW) 19:07:55 435.675
ESTCUBE 1 23 Nov 18:57:00 19:01:01 31° 38° (NE) 19:05:03 437.505/2401.250
AIST 1 23 Nov 18:57:37 19:01:37 34° 91° (E) 19:05:39
AAUSAT CUBESAT 2 23 Nov 19:00:48 19:05:00 89° 247° (WSW) 19:09:15 437.432
CANX-2 23 Nov 19:02:54 19:07:08 69° 252° (WSW) 19:11:25 2200.000
CUTE-I 23 Nov 19:07:00 19:09:57 15° 288° (WNW) 19:12:53 437.470
VELOX 1 23 Nov 19:07:25 19:11:44 47° 50° (NE) 19:16:01 145.980
STARS 23 Nov 19:09:02 19:12:04 19° 348° (NNW) 19:15:06 437.465
COMPASS 1 23 Nov 19:14:19 19:18:31 72° 251° (WSW) 19:22:45 437.405
ZACube-1 23 Nov 19:15:33 19:19:38 55° 56° (NE) 19:23:44 437.345
DOVE 4 23 Nov 19:18:19 19:22:47 82° 248° (WSW) 19:27:04 437.250
HUMSAT D 23 Nov 19:18:43 19:22:40 46° 52° (NE) 19:26:38 437.325/437.525
DELFI C3 23 Nov 19:19:21 19:23:28 77° 63° (ENE) 19:27:36 145.870
RS-15 23 Nov 19:21:02 19:31:46 67° 162° (SSE) 19:42:48 29.354- 29.394
MaSat-1 23 Nov 19:23:38 19:26:10 89° 348° (NNW) 19:28:34 437.345
50 SAT 23 Nov 19:25:12 19:29:04 45° 52° (NE) 19:32:56 437.505
PRISM 23 Nov 19:26:00 19:30:12 57° 305° (NW) 19:34:23 437.425
ITUPSAT 1 23 Nov 19:27:29 19:31:07 22° 12° (NNE) 19:34:45 437.325
AISAT 23 Nov 19:31:52 19:36:18 60° 56° (NE) 19:40:43 437.250
PCSat 23 Nov 19:32:37 19:35:58 17° 114° (ESE) 19:39:19 145.827
CUTE 1.7 & AOD 2 23 Nov 19:38:15 19:42:21 46° 259° (W) 19:46:30 437.475
SWISSCUBE 23 Nov 19:39:16 19:42:58 22° 16° (NNE) 19:46:40 437.505
KKS-1 23 Nov 19:43:40 19:46:38 18° 0° (N) 19:49:36 437.445
GOMX 1 23 Nov 19:48:34 19:53:03 51° 258° (WSW) 19:57:17 467.674
FUNcube-1 23 Nov 19:51:17 19:55:28 82° 64° (ENE) 19:59:40 145.935
TISAT 1 23 Nov 19:52:24 19:56:05 29° 38° (NE) 19:59:46 437.305
UKube-1 23 Nov 19:52:32 19:56:53 65° 251° (WSW) 20:01:16 .
SPROUT 23 Nov 19:54:03 19:57:44 28° 37° (NE) 20:01:25 437.525
STRAND 1 23 Nov 19:54:21 19:59:31 76° 301° (WNW) 20:04:38 437.568
CUBEBUG 1 23 Nov 19:54:44 19:59:02 48° 51° (NE) 20:03:19 437.445
BRITE-PL 23 Nov 20:04:18 20:08:45 37° 264° (W) 20:12:55 437.365/2234.400
CUBEBUG 2 23 Nov 20:05:13 20:09:26 73° 250° (WSW) 20:13:38 437.445
Oscar 11 23 Nov 20:06:03 20:10:19 56° 256° (WSW) 20:14:36 145.826/435.025
AUBIESAT-1 23 Nov 20:06:25 20:10:34 38° 25° (NNE) 20:14:59 437.475
M-CUBED/EXP-1 PRIME 23 Nov 20:09:44 20:13:54 39° 27° (NNE) 20:18:22 437.505
ANTELSAT 23 Nov 20:10:14 20:10:56 10° 70° (ENE) 20:11:39 437.575/2403.000
BEESAT 23 Nov 20:10:30 20:14:22 25° 23° (NNE) 20:18:14 436.000
UWE-3 23 Nov 20:10:54 20:15:07 73° 251° (WSW) 20:19:18 435.000/436.395/437.385
CUSAT 1 23 Nov 20:11:41 20:14:11 21° 37° (NE) 20:17:10 437.405
CINEMA 3 23 Nov 20:13:55 20:18:08 53° 256° (WSW) 20:22:16 145.822/145.860
SEEDS 23 Nov 20:15:14 20:19:02 32° 267° (W) 20:22:52 437.485
GONETS M04 23 Nov 20:20:03 20:28:12 43° 279° (W) 20:36:18
DX 1 23 Nov 20:25:51 20:30:04 43° 259° (W) 20:34:18 434.975-435.025
DANDE 23 Nov 20:26:15 20:28:41 21° 38° (NE) 20:31:33 436.750
CUBESAT XI-V 23 Nov 20:26:40 20:31:13 48° 309° (NW) 20:35:44 437.345
MOZHAYETS 4 23 Nov 20:30:02 20:33:39 23° 335° (NNW) 20:37:16
ESTCUBE 1 23 Nov 20:32:56 20:37:30 73° 61° (ENE) 20:42:06 437.505/2401.250
AIST 1 23 Nov 20:34:38 20:39:05 76° 294° (WNW) 20:43:33
AAUSAT CUBESAT 2 23 Nov 20:37:38 20:41:15 28° 269° (W) 20:44:54 437.432
CANX-2 23 Nov 20:40:32 20:43:51 22° 275° (W) 20:47:11 2200.000
HO-68 23 Nov 20:43:19 20:49:38 32° 273° (W) 20:56:00 435.675
VELOX 1 23 Nov 20:43:51 20:48:19 64° 252° (WSW) 20:52:48 145.980
STARS 23 Nov 20:44:22 20:47:23 19° 12° (NNE) 20:50:25 437.465
COMPASS 1 23 Nov 20:51:38 20:54:59 22° 274° (W) 20:58:20 437.405
ZACube-1 23 Nov 20:52:09 20:56:12 47° 259° (WSW) 21:00:16 437.345
HUMSAT D 23 Nov 20:54:26 20:58:32 58° 255° (WSW) 21:02:38 437.325/437.525
DELFI C3 23 Nov 20:55:29 20:59:12 32° 266° (W) 21:02:56 145.870
POLYITAN 1 23 Nov 20:56:01 20:58:24 15° 78° (ENE) 21:00:47 437.675
DOVE 4 23 Nov 20:57:29 21:01:12 26° 270° (W) 21:04:49 437.250
MaSat-1 23 Nov 20:58:20 21:00:48 73° 197° (SSW) 21:03:09 437.345
QB50P2 23 Nov 20:59:02 21:01:33 15° 79° (ENE) 21:04:03 145.880/145.840
50 SAT 23 Nov 21:00:25 21:04:25 58° 254° (WSW) 21:08:26 437.505
PRISM 23 Nov 21:01:42 21:05:14 26° 327° (NNW) 21:08:45 437.425
ITUPSAT 1 23 Nov 21:03:45 21:08:02 32° 35° (NE) 21:12:20 437.325
TIGRISAT 23 Nov 21:04:46 21:07:57 20° 84° (E) 21:11:10 435.000
DUCHIFAT 1 23 Nov 21:06:43 21:09:25 16° 80° (E) 21:12:07 145.980
AISAT 23 Nov 21:08:48 21:13:09 47° 258° (WSW) 21:17:30 437.250
PCSat 23 Nov 21:13:12 21:18:09 37° 138° (SE) 21:23:08 145.827
SWISSCUBE 23 Nov 21:15:32 21:19:55 36° 39° (NE) 21:24:19 437.505
CUTE 1.7 & AOD 2 23 Nov 21:16:51 21:19:22 15° 282° (WNW) 21:21:53 437.475
UNISAT 6 23 Nov 21:16:53 21:20:22 23° 87° (E) 21:23:52 437.425
KKS-1 23 Nov 21:18:43 21:22:10 22° 24° (NNE) 21:25:36 437.445
NANOSAT C BR1 23 Nov 21:25:30 21:28:42 20° 85° (E) 21:31:53 145.865
TISAT 1 23 Nov 21:27:16 21:31:32 71° 60° (ENE) 21:35:47 437.305
FUNcube-1 23 Nov 21:28:36 21:32:19 30° 267° (W) 21:36:03 145.935
BEESAT 3 23 Nov 21:28:51 21:31:57 20° 136° (SE) 21:35:03 437.485
SPROUT 23 Nov 21:29:05 21:33:23 67° 60° (ENE) 21:37:42 437.525
GOMX 1 23 Nov 21:29:15 21:32:12 17° 280° (W) 21:35:03 467.674
UKube-1 23 Nov 21:30:31 21:33:52 21° 274° (W) 21:37:15 .
CUBEBUG 1 23 Nov 21:31:01 21:35:26 61° 254° (WSW) 21:39:52 437.445
RS-15 23 Nov 21:32:40 21:43:29 69° 193° (SSW) 21:54:40 29.354- 29.394
STRAND 1 23 Nov 21:33:39 21:38:19 36° 324° (NW) 21:42:57 437.568
QB50P1 23 Nov 21:34:59 21:38:23 23° 87° (E) 21:41:46 145.935-145.965
AUBIESAT-1 23 Nov 21:40:48 21:45:12 73° 48° (NE) 21:49:58 437.475
BEESAT 2 23 Nov 21:41:59 21:45:13 22° 138° (SE) 21:48:29 435.950
CUBEBUG 2 23 Nov 21:43:32 21:46:52 23° 273° (W) 21:50:13 437.445
M-CUBED/EXP-1 PRIME 23 Nov 21:44:14 21:48:38 78° 50° (NE) 21:53:25 437.505
Oscar 11 23 Nov 21:44:23 21:47:25 18° 278° (W) 21:50:28 145.826/435.025
ANTELSAT 23 Nov 21:45:15 21:49:10 31° 94° (E) 21:53:08 437.575/2403.000
BRITE-PL 23 Nov 21:46:27 21:48:33 13° 286° (WNW) 21:50:36 437.365/2234.400
BEESAT 23 Nov 21:46:53 21:51:27 44° 46° (NE) 21:56:02 436.000
UWE-3 23 Nov 21:49:03 21:52:23 22° 273° (W) 21:55:43 435.000/436.395/437.385
CINEMA 3 23 Nov 21:53:31 21:56:19 17° 279° (W) 21:59:05 145.822/145.860
SEEDS 23 Nov 21:55:32 21:56:15 10° 290° (WNW) 21:56:57 437.485
